This is the latest recevied weather packets stored in our database for station/object N8TWM-13. If no packets are shown the sender has not sent any weather packets the latest 10 day(s).
| Time | Temp. | Humidity | Pressure | Rain* | Wind** | Luminosity | Snow |
|---|---|---|---|---|---|---|---|
| 1777918388 | 21.11° C | 57% | 1006.9 hPa | 0 mm | - | 704 W/m² | - |
| 1777918087 | 21.11° C | 57% | 1006.9 hPa | 0 mm | - | 620 W/m² | - |
| 1777917785 | 20.56° C | 58% | 1006.8 hPa | 0 mm | - | 462 W/m² | - |
| 1777917483 | 20.56° C | 59% | 1006.7 hPa | 0 mm | - | 698 W/m² | - |
| 1777917179 | 20.56° C | 58% | 1006.7 hPa | 0 mm | - | 698 W/m² | - |
| 1777916877 | 20.56° C | 59% | 1006.8 hPa | 0 mm | - | 675 W/m² | - |
| 1777916575 | 20.56° C | 59% | 1007 hPa | 0 mm | - | 687 W/m² | - |
| 1777916271 | 20° C | 59% | 1007 hPa | 0 mm | - | 81 W/m² | - |
| 1777915968 | 19.44° C | 59% | 1007.4 hPa | 0 mm | - | 81 W/m² | - |
| 1777915665 | 19.44° C | 60% | 1007.5 hPa | 0 mm | - | 83 W/m² | - |
| 1777915362 | 20° C | 58% | 1007.4 hPa | 0 mm | - | 83 W/m² | - |
| 1777915058 | 19.44° C | 60% | 1007.2 hPa | 0 mm | - | 80 W/m² | - |
| 1777914755 | 19.44° C | 59% | 1007.2 hPa | 0 mm | - | 88 W/m² | - |
| 1777914452 | 18.89° C | 61% | 1007.2 hPa | 0 mm | - | 697 W/m² | - |
| 1777914149 | 19.44° C | 59% | 1007.4 hPa | 0 mm | - | 701 W/m² | - |
| 1777913845 | 19.44° C | 59% | 1007.6 hPa | 0 mm | - | 691 W/m² | - |
| 1777913541 | 19.44° C | 59% | 1007.4 hPa | 0 mm | - | 543 W/m² | - |
| 1777913238 | 18.89° C | 58% | 1007.7 hPa | 0 mm | - | 655 W/m² | - |
| 1777912936 | 19.44° C | 59% | 1007.8 hPa | 0 mm | - | 444 W/m² | - |
| 1777912631 | 18.89° C | 58% | 1008 hPa | 0 mm | - | 88 W/m² | - |
| 1777912327 | 18.89° C | 60% | 1007.7 hPa | 0 mm | - | 422 W/m² | - |
| 1777912023 | 18.89° C | 59% | 1007.8 hPa | 0 mm | - | 711 W/m² | - |
| 1777911719 | 18.89° C | 57% | 1008 hPa | 0 mm | - | 730 W/m² | - |
| 1777911416 | 18.33° C | 59% | 1008 hPa | 0 mm | - | 735 W/m² | - |
| 1777911114 | 18.33° C | 58% | 1007.9 hPa | 0 mm | - | 726 W/m² | - |
* Rain latest hour (hover to see other rain measurements)
** Current wind speed in m/s (hover to see current wind gust speed)